Weather History for Hayward, WI

Change the Weather History Date:

Saturday, February 11, 2012

  Actual Average Record
Temperature  
Mean Temperature 8 °F -  
Max Temperature 17 °F 26 °F 45 °F (2005)
Min Temperature -2 °F -3 °F -27 °F (2014)
Degree Days  
Heating Degree Days 58    
Moisture  
Dew Point -10 °F    
Average Humidity 46    
Maximum Humidity 56    
Minimum Humidity 34    
Precipitation  
Precipitation 0.00 in - - ()
Sea Level Pressure  
Sea Level Pressure 30.48 in    
Wind  
Wind Speed 4 mph (West)    
Max Wind Speed 9 mph    
Max Gust Speed 17 mph    
Visibility 10 miles    
Events      
Averages and records for this station are not official NWS values.
T = Trace of Precipitation, MM = Missing Value Source: NWS Daily Summary

Daily Weather History Graph

Daily Weather History Graph

Search for Another Location

Airport:

Trip Planner

Search our weather history database for the weather conditions in past years. The results will help you decide how hot, cold, wet, or windy it might be!

Date:

Astronomy

Feb. 11, 2012 Rise Set
Actual Time 7:15 AM CST 5:25 PM CST
Civil Twilight 6:44 AM CST 5:56 PM CST
Nautical Twilight 6:09 AM CST 6:31 PM CST
Astronomical Twilight 5:34 AM CST 7:06 PM CST
Moon 10:34 PM CST (2/11) 8:39 AM CST (2/11)
Length of Visible Light 11h 12m
Length of Day
10h 10m
Waning Gibbous, 82% of the Moon is Illuminated
Feb 11
Waning Gibbous
Feb 14
Last Quarter
Feb 21
New
Feb 29
First Quarter
Mar 8
Full

Hourly Weather History & Observations

Time (CST) Temp. Windchill Dew Point Humidity Pressure Visibility Wind Dir Wind Speed Gust Speed Precip Events Conditions
12:53 AM 3.0 °F -4.4 °F -14.1 °F 45% 30.48 in 10.0 mi Variable 3.5 mph - N/A   Clear
1:53 AM 1.9 °F - -14.1 °F 47% 30.48 in 10.0 mi Calm Calm - N/A   Clear
2:53 AM 1.0 °F - -15.0 °F 47% 30.48 in 10.0 mi Calm Calm - N/A   Clear
3:53 AM -0.9 °F -8.9 °F -15.0 °F 52% 30.48 in 10.0 mi Variable 3.5 mph - N/A   Clear
4:53 AM -0.0 °F -9.9 °F -15.0 °F 49% 30.49 in 10.0 mi Variable 4.6 mph - N/A   Clear
5:53 AM -0.9 °F - -15.0 °F 52% 30.50 in 10.0 mi Calm Calm - N/A   Clear
6:53 AM -2.9 °F -15.0 °F -15.0 °F 56% 30.51 in 10.0 mi Variable 5.8 mph - N/A   Clear
7:53 AM -2.9 °F -11.2 °F -15.0 °F 56% 30.53 in 10.0 mi Variable 3.5 mph - N/A   Clear
8:53 AM -0.9 °F -8.9 °F -14.1 °F 54% 30.54 in 10.0 mi Variable 3.5 mph - N/A   Clear
9:53 AM 1.0 °F -14.0 °F -13.0 °F 52% 30.53 in 10.0 mi WNW 9.2 mph - N/A   Clear
10:53 AM 6.1 °F -4.3 °F -9.9 °F 48% 30.53 in 10.0 mi Variable 5.8 mph - N/A   Clear
11:53 AM 9.0 °F -3.2 °F -9.9 °F 42% 30.52 in 10.0 mi WNW 8.1 mph - N/A   Clear
12:53 PM 12.0 °F -0.4 °F -9.9 °F 37% 30.49 in 10.0 mi West 9.2 mph - N/A   Clear
1:53 PM 15.1 °F 4.2 °F -8.0 °F 36% 30.47 in 10.0 mi WNW 8.1 mph - N/A   Clear
2:53 PM 16.0 °F 6.3 °F -8.0 °F 34% 30.47 in 10.0 mi Variable 6.9 mph 17.3 mph N/A   Clear
3:53 PM 17.1 °F 7.6 °F -7.1 °F 34% 30.47 in 10.0 mi Variable 6.9 mph - N/A   Clear
4:53 PM 16.0 °F 6.3 °F -6.0 °F 38% 30.47 in 10.0 mi Variable 6.9 mph - N/A   Overcast
5:53 PM 12.9 °F 6.9 °F -5.1 °F 45% 30.48 in 10.0 mi Variable 3.5 mph - N/A   Clear
6:53 PM 12.0 °F 2.7 °F -5.1 °F 46% 30.48 in 10.0 mi West 5.8 mph - N/A   Clear
7:53 PM 10.9 °F 1.4 °F -5.1 °F 49% 30.48 in 10.0 mi West 5.8 mph - N/A   Clear
8:53 PM 10.0 °F 1.8 °F -6.0 °F 48% 30.47 in 10.0 mi Variable 4.6 mph - N/A   Clear
9:53 PM 8.1 °F 1.4 °F -7.1 °F 50% 30.45 in 10.0 mi WSW 3.5 mph - N/A   Clear
10:53 PM 8.1 °F 1.4 °F -7.1 °F 50% 30.44 in 10.0 mi West 3.5 mph - N/A   Clear
11:53 PM 7.0 °F 0.1 °F -7.1 °F 53% 30.43 in 10.0 mi Variable 3.5 mph - N/A   Clear